This demonstration page uses our WeatherBlox Daily Observations layout. Learn more.

Left ArrowRight Arrow

Hourly Observations for May 25, 2022

Temp ( °F °C ) Dew Point ( °F °C ) Humidity (%) Winds ( mph kmh ) Pressure ( in mb ) Visibility ( mi km ) Precip ( " mm )
12:53 am 00:53 Cloudy with Drizzle 54 12.2 53 11.7 97 97 W 10 17 29.72 1007 3 5 0.00 0.00
1:53 am 01:53 Cloudy 53 11.7 52 11.1 96 96 W 10 17 29.72 1006 7 11 0.00 0.00
2:53 am 02:53 Cloudy 53 11.7 51 10.6 93 93 W 10 17 29.70 1006 10 16 0.00 0.00
3:53 am 03:53 Cloudy with Mist and Fog 52 11.1 51 10.6 97 97 WNW 12 19 29.67 1005 4 6 0.00 0.00
4:53 am 04:53 Cloudy 52 11.1 51 10.6 97 97 WNW 10 17 29.70 1006 10 16 0.00 0.00
5:53 am 05:53 Cloudy with Light Rain 52 11.1 51 10.6 97 97 NW 9 15 29.70 1006 4 6 0.00 0.00
6:53 am 06:53 Cloudy with Light Rain 52 11.1 51 10.6 97 97 NNW 10 17 29.69 1005 3 5 0.06 1.52
7:06 am 07:06 Cloudy with Light Rain 52 11.1 51 10.6 97 97 NNW 12 19 29.71 1006 2 3 0.00 0.00
7:53 am 07:53 Cloudy with Light Rain 52 11.1 51 10.6 97 97 NNW 15 24 29.69 1006 3 5 0.03 0.76
8:53 am 08:53 Cloudy with Light Rain 52 11.1 51 10.6 97 97 NNW 14 22 29.69 1006 4 6 0.07 1.78
9:53 am 09:53 Cloudy with Light Rain 53 11.7 52 11.1 96 96 NNW 12 19 29.70 1006 5 8 0.06 1.52
10:53 am 10:53 Cloudy with Light Rain 55 12.8 53 11.7 93 93 N 14 22 29.70 1006 10 16 0.04 1.02
11:53 am 11:53 Cloudy with Light Rain 56 13.3 54 12.2 93 93 NW 13 20 29.69 1006 6 10 0.00 0.00
12:53 pm 12:53 Cloudy with Light Rain 56 13.3 53 11.7 90 90 NNW 15 24 29.69 1005 9 14 0.01 0.25
1:53 pm 13:53 Cloudy with Light Rain 55 12.8 53 11.7 93 93 NNW 16 26 29.68 1005 4 6 0.03 0.76
2:44 pm 14:44 Cloudy with Heavy Rain 54 12.2 52 11.1 93 93 NNW 18 30 29.69 1005 2 3 0.10 2.54
2:53 pm 14:53 Cloudy with Rain 54 12.2 52 11.1 93 93 NW 15 24 29.68 1005 2 3 0.13 3.30
3:53 pm 15:53 Cloudy with Rain 53 11.7 51 10.6 93 93 NW 15 24 29.68 1005 3 4 0.17 4.32
4:53 pm 16:53 Cloudy with Light Rain 53 11.7 51 10.6 93 93 NW 13 20 29.68 1005 3 4 0.11 2.79
5:08 pm 17:08 Cloudy with Light Rain 53 11.7 51 10.6 93 93 NW 14 22 29.69 1006 3 5 0.02 0.51
5:17 pm 17:17 Cloudy with Light Rain 53 11.7 51 10.6 93 93 NW 14 22 29.69 1006 3 4 0.04 1.02
5:31 pm 17:31 Cloudy with Rain 53 11.7 51 10.6 93 93 WNW 14 22 29.68 1005 3 4 0.06 1.52
5:44 pm 17:44 Cloudy with Light Rain 53 11.7 51 10.6 93 93 NW 15 24 29.68 1005 4 6 0.09 2.29
5:53 pm 17:53 Cloudy with Light Rain 53 11.7 51 10.6 93 93 NW 13 20 29.68 1005 4 6 0.10 2.54
6:53 pm 18:53 Cloudy with Light Rain 53 11.7 51 10.6 93 93 NNW 18 30 29.69 1005 3 5 0.05 1.27
7:53 pm 19:53 Cloudy with Rain 52 11.1 50 10 93 93 NNW 17 28 29.70 1006 3 5 0.07 1.78
8:53 pm 20:53 Cloudy with Light Rain 52 11.1 50 10 93 93 NNW 18 30 29.70 1006 5 8 0.11 2.79
9:53 pm 21:53 Cloudy with Rain 52 11.1 50 10 93 93 NW 14 22 29.71 1006 4 6 0.04 1.02
10:38 pm 22:38 Cloudy with Rain 52 11.1 50 10 93 93 NW 14 22 29.73 1007 4 6 0.08 2.03
10:53 pm 22:53 Cloudy with Light Rain 52 11.1 50 10 93 93 NW 15 24 29.71 1006 8 13 0.09 2.29
11:00 pm 23:00 Cloudy with Light Rain 52 11.1 50 10 93 93 NW 14 22 29.73 1007 8 13 0.00 0.00
11:53 pm 23:53 Cloudy with Light Rain 52 11.1 50 10 93 93 NW 14 22 29.70 1006 5 8 0.07 1.78

Powered by AerisWeather